Home   Weather   Erding   Past weeks
Flag for Germany

Past Weather in Erding, Bavaria, Germany — Yesterday and Last 2 Weeks

Now
75 °F

Passing clouds.


Feels Like: 78 °F
Forecast: 87 / 59 °F
Wind: 10 mph from Southwest

Location: Munich / Franz Josef Strauss Airport

Current Time: Aug 17, 2019 at 1:09:06 pm

Latest Report: Aug 17, 2019 at 12:20 pm


Visibility: N/A

Pressure: 30.01 "Hg

Humidity: 50%

Dew Point: 55 °F

Location of ErdingLocation

Past Weather in Erding — Graph

°F

Erding Temperature Yesterday

Maximum temperature yesterday: 72 °F (at 3:20 pm)
Minimum temperature yesterday: 55 °F (at 11:20 pm)
Average temperature yesterday: 63 °F

High & Low Weather Summary for the Past Weeks

 TemperatureHumidityPressure
High90 °F (Aug 9, 5:20 pm)100% (Aug 5, 2:50 am)30.15 "Hg (Aug 5, 2:50 am)
Low45 °F (Aug 15, 4:50 am)33% (Aug 9, 5:20 pm)29.83 "Hg (Aug 11, 7:50 pm)
Average65 °F74%30.02 "Hg
* Reported Aug 2 11:20 am — Aug 17 11:50 am, Erding. Weather by CustomWeather, © 2019

Note: Actual official high and low records may vary slightly from our data, if they occured in-between our weather recording intervals... More about our weather records

Advertising

Erding Weather History for the Previous 24 Hours

Scroll right to see more
 ConditionsComfort  
Time TempWeatherWind HumidityBarometerVisibility
11:50 am
Sat, Aug 17
73 °FPassing clouds.6 mph50%30.01 "HgN/A
11:20 am72 °FPassing clouds.5 mph61%30.01 "HgN/A
10:50 am70 °FPassing clouds.6 mph64%30.01 "HgN/A
10:20 am66 °FPassing clouds.5 mph73%30.01 "HgN/A
9:50 am64 °FSunny.2 mph73%30.04 "Hg10 mi
9:20 am63 °FPassing clouds.3 mph73%30.04 "HgN/A
8:50 am61 °FPassing clouds.5 mph77%30.04 "HgN/A
7:50 am55 °FPassing clouds.5 mph88%30.01 "HgN/A
7:20 am52 °FPassing clouds.3 mph94%30.01 "HgN/A
6:50 am50 °FSunny.1 mph100%30.01 "Hg10 mi
6:20 am50 °FSunny.No wind94%30.01 "Hg10 mi
5:50 am48 °FClear.2 mph100%30.01 "Hg10 mi
5:20 am48 °FClear.1 mph100%30.01 "Hg10 mi
4:50 am48 °FClear.1 mph94%30.01 "Hg10 mi
4:20 am48 °FLight fog.2 mph94%30.01 "HgN/A
3:50 am48 °FLight fog.2 mph94%30.01 "HgN/A
3:20 am50 °FLight fog.1 mph94%30.01 "HgN/A
2:50 am50 °FClear.1 mph94%30.01 "Hg10 mi
2:20 am50 °FClear.No wind100%30.01 "Hg10 mi
1:50 am52 °FClear.1 mph94%30.01 "Hg10 mi
1:20 am52 °FClear.1 mph94%30.04 "Hg10 mi
12:50 am54 °FClear.1 mph88%30.04 "Hg10 mi
12:20 am55 °FClear.2 mph88%30.04 "Hg10 mi
11:50 pm
Fri, Aug 16
55 °FClear.2 mph88%30.04 "Hg10 mi
11:20 pm55 °FClear.3 mph88%30.04 "Hg10 mi
10:50 pm59 °FClear.2 mph77%30.04 "Hg10 mi
10:20 pm59 °FClear.5 mph77%30.04 "Hg10 mi
9:50 pm57 °FClear.3 mph82%30.04 "Hg10 mi
9:20 pm59 °FClear.3 mph77%30.07 "Hg10 mi
8:50 pm63 °FClear.5 mph68%30.04 "Hg10 mi
7:50 pm70 °FSunny.1 mph53%30.04 "Hg10 mi
7:20 pm70 °FPassing clouds.3 mph50%30.04 "HgN/A
6:50 pm72 °FSunny.2 mph44%30.04 "Hg10 mi
6:20 pm72 °FSunny.2 mph41%30.07 "Hg10 mi
5:50 pm72 °FPassing clouds.3 mph44%30.07 "HgN/A
5:20 pm72 °FPassing clouds.8 mph47%30.07 "HgN/A
4:50 pm72 °FPassing clouds.7 mph44%30.07 "HgN/A
4:20 pm72 °FPassing clouds.7 mph47%30.07 "HgN/A
3:50 pm72 °FPassing clouds.6 mph47%30.09 "HgN/A
3:20 pm72 °FPassing clouds.8 mph50%30.09 "HgN/A
2:50 pm70 °FPassing clouds.9 mph46%30.09 "HgN/A
1:50 pm68 °FPassing clouds.7 mph49%30.12 "HgN/A
1:20 pm68 °FPassing clouds.8 mph53%30.12 "HgN/A
Weather by CustomWeather, © 2019

See weather overview